Voltar ao catálogo

STARLINK-36390

AtivoComunicaçõesSSO
NORAD 67886·PAYLOAD·🇺🇸 United States

Lançado Feb 21, 2026 de Vandenberg Space Force Base

Loading…

Próximas Passagens (próximas 24 horas)

TLE

AtualizadoSource: CelesTrak SupGP

Época: Sep 14, 2026, 21:39 UTC

1 67886C 26035H   26257.90256944 -.00051766  00000+0 -16071-2 0  2572
2 67886  97.2844 189.7718 0001803  94.4071 181.6803 15.33461061    17

Acompanhe STARLINK-36390 em tempo real com AllMySat

Download on the App Store